EN

Hourly Weather Bartodzieje

Today, 28 January, Thursday

Time Temperature Precipitation Wind Pressure Humidity
00:00 -4°C° 0 mm 2 mps 739 mmHg 92%
01:00 -4°C° 0 mm 2 mps 738 mmHg 93%
02:00 -4°C° 0 mm 2 mps 738 mmHg 92%
03:00 -4°C° 0 mm 2 mps 738 mmHg 91%
04:00 -4°C° 0 mm 2 mps 738 mmHg 90%
05:00 -5°C° 0 mm 3 mps 737 mmHg 89%
06:00 -5°C° 0 mm 3 mps 737 mmHg 89%
07:00 -5°C° 0 mm 3 mps 736 mmHg 89%
08:00 -5°C° 0 mm 3 mps 736 mmHg 86%
09:00 -4°C° 0 mm 4 mps 735 mmHg 83%
10:00 -4°C° 0 mm 5 mps 735 mmHg 81%
11:00 -4°C° 0.1 mm 5 mps 734 mmHg 84%
12:00 -2°C° 0.1 mm 5 mps 734 mmHg 88%
13:00 -2°C° 0.1 mm 5 mps 733 mmHg 92%
14:00 -2°C° 0.1 mm 5 mps 732 mmHg 93%
15:00 -2°C° 0.1 mm 5 mps 732 mmHg 93%
16:00 -2°C° 0.1 mm 4 mps 731 mmHg 94%
17:00 -1°C° 0.2 mm 4 mps 731 mmHg 95%
18:00 -1°C° 0.2 mm 4 mps 731 mmHg 96%
19:00 -1°C° 0.2 mm 4 mps 731 mmHg 97%
20:00 -2°C° 0.4 mm 4 mps 731 mmHg 97%
21:00 -1°C° 0.4 mm 3 mps 730 mmHg 96%
22:00 -1°C° 0.4 mm 3 mps 730 mmHg 96%
23:00 -2°C° 0.2 mm 2 mps 730 mmHg 94%

Tomorrow, 29 January, Friday

Time Temperature Precipitation Wind Pressure Humidity
00:00 -2°C° 0.2 mm 2 mps 730 mmHg 92%
01:00 -2°C° 0.2 mm 2 mps 730 mmHg 90%
02:00 -3°C° 0 mm 2 mps 730 mmHg 88%
03:00 -4°C° 0 mm 3 mps 730 mmHg 87%
04:00 -4°C° 0 mm 3 mps 730 mmHg 86%
05:00 -5°C° 0 mm 4 mps 731 mmHg 85%
06:00 -5°C° 0 mm 4 mps 731 mmHg 83%
07:00 -5°C° 0 mm 4 mps 731 mmHg 82%
08:00 -5°C° 0 mm 4 mps 731 mmHg 81%
09:00 -4°C° 0 mm 4 mps 730 mmHg 79%
10:00 -4°C° 0 mm 4 mps 730 mmHg 78%
11:00 -3°C° 0 mm 4 mps 730 mmHg 75%
12:00 -3°C° 0 mm 4 mps 730 mmHg 72%
13:00 -2°C° 0 mm 3 mps 729 mmHg 69%
14:00 -2°C° 0 mm 3 mps 729 mmHg 71%
15:00 -2°C° 0 mm 2 mps 728 mmHg 73%
16:00 0°C° 0 mm 1 mps 728 mmHg 75%
17:00 -2°C° 0.3 mm 2 mps 727 mmHg 80%
18:00 -3°C° 0.3 mm 2 mps 726 mmHg 86%
19:00 -4°C° 0.3 mm 3 mps 726 mmHg 91%
20:00 -4°C° 1.2 mm 3 mps 726 mmHg 93%
21:00 -4°C° 1.2 mm 4 mps 725 mmHg 94%
22:00 -4°C° 1.2 mm 4 mps 725 mmHg 96%
23:00 -4°C° 0.3 mm 4 mps 726 mmHg 95%

Day after tomorrow, 30 January, Saturday

Time Temperature Precipitation Wind Pressure Humidity
00:00 -4°C° 0.3 mm 3 mps 726 mmHg 95%
01:00 -4°C° 0.3 mm 3 mps 726 mmHg 95%
02:00 -4°C° 0.1 mm 2 mps 726 mmHg 95%
03:00 -4°C° 0.1 mm 2 mps 726 mmHg 96%
04:00 -2°C° 0.1 mm 1 mps 726 mmHg 96%
05:00 -2°C° 0.1 mm 1 mps 725 mmHg 96%
06:00 -2°C° 0.1 mm 1 mps 725 mmHg 96%
07:00 -2°C° 0.1 mm 1 mps 725 mmHg 96%
08:00 -4°C° 0.8 mm 2 mps 724 mmHg 96%
09:00 -4°C° 0.8 mm 2 mps 724 mmHg 96%
10:00 -4°C° 0.8 mm 3 mps 724 mmHg 96%
11:00 -4°C° 1 mm 4 mps 724 mmHg 95%
12:00 -4°C° 1 mm 4 mps 725 mmHg 95%
13:00 -5°C° 1 mm 5 mps 725 mmHg 95%
14:00 -5°C° 0.3 mm 5 mps 726 mmHg 94%
15:00 -5°C° 0.3 mm 5 mps 727 mmHg 93%
16:00 -5°C° 0.3 mm 5 mps 727 mmHg 92%
17:00 -5°C° 0.1 mm 5 mps 728 mmHg 92%
18:00 -6°C° 0.1 mm 5 mps 729 mmHg 92%
19:00 -7°C° 0.1 mm 5 mps 730 mmHg 92%
20:00 -8°C° 0 mm 4 mps 730 mmHg 92%
21:00 -9°C° 0 mm 4 mps 730 mmHg 92%
22:00 -9°C° 0 mm 3 mps 731 mmHg 92%
23:00 -9°C° 0 mm 3 mps 731 mmHg 93%

31 January, Sunday

Time Temperature Precipitation Wind Pressure Humidity
00:00 -9°C° 0 mm 3 mps 731 mmHg 93%
01:00 -10°C° 0 mm 3 mps 732 mmHg 94%
02:00 -10°C° 0 mm 3 mps 732 mmHg 94%
03:00 -10°C° 0 mm 3 mps 732 mmHg 93%
04:00 -9°C° 0 mm 2 mps 732 mmHg 93%
05:00 -10°C° 0 mm 2 mps 732 mmHg 93%
06:00 -10°C° 0 mm 2 mps 733 mmHg 93%
07:00 -10°C° 0 mm 2 mps 733 mmHg 92%
08:00 -9°C° 0 mm 2 mps 733 mmHg 90%
09:00 -8°C° 0 mm 2 mps 733 mmHg 89%
10:00 -7°C° 0 mm 2 mps 733 mmHg 87%
11:00 -6°C° 0 mm 2 mps 733 mmHg 84%
12:00 -5°C° 0 mm 2 mps 733 mmHg 81%
13:00 -4°C° 0 mm 2 mps 733 mmHg 78%
14:00 -4°C° 0 mm 2 mps 733 mmHg 80%
15:00 -5°C° 0 mm 2 mps 733 mmHg 83%
16:00 -6°C° 0 mm 2 mps 732 mmHg 85%
17:00 -6°C° 0 mm 2 mps 732 mmHg 86%
18:00 -6°C° 0 mm 2 mps 733 mmHg 87%
19:00 -8°C° 0 mm 3 mps 733 mmHg 87%
20:00 -8°C° 0 mm 3 mps 732 mmHg 88%
21:00 -8°C° 0 mm 3 mps 732 mmHg 88%
22:00 -8°C° 0 mm 3 mps 732 mmHg 88%
23:00 -8°C° 0 mm 3 mps 731 mmHg 87%

1 February, Monday

Time Temperature Precipitation Wind Pressure Humidity
00:00 -8°C° 0 mm 3 mps 731 mmHg 87%
01:00 -8°C° 0 mm 3 mps 730 mmHg 86%
02:00 -8°C° 0 mm 3 mps 730 mmHg 86%
03:00 -8°C° 0 mm 3 mps 729 mmHg 85%
04:00 -8°C° 0 mm 3 mps 729 mmHg 85%
05:00 -8°C° 0 mm 3 mps 729 mmHg 84%
06:00 -7°C° 0 mm 3 mps 729 mmHg 83%
07:00 -7°C° 0 mm 3 mps 729 mmHg 83%
08:00 -6°C° 0 mm 3 mps 729 mmHg 82%
09:00 -5°C° 0 mm 3 mps 729 mmHg 80%
10:00 -4°C° 0 mm 3 mps 729 mmHg 79%
11:00 -2°C° 0 mm 2 mps 729 mmHg 84%
12:00 -2°C° 0 mm 2 mps 729 mmHg 88%
13:00 -1°C° 0 mm 2 mps 729 mmHg 93%
14:00 -1°C° 0.1 mm 2 mps 729 mmHg 94%
15:00 -1°C° 0.1 mm 2 mps 729 mmHg 94%
16:00 +1°C° 0.1 mm 1 mps 729 mmHg 95%
17:00 -1°C° 0.2 mm 2 mps 730 mmHg 96%
18:00 -1°C° 0.2 mm 2 mps 731 mmHg 97%
19:00 -1°C° 0.2 mm 2 mps 731 mmHg 98%
20:00 -1°C° 0.1 mm 2 mps 732 mmHg 98%
21:00 -1°C° 0.1 mm 2 mps 733 mmHg 98%
22:00 -2°C° 0.1 mm 2 mps 733 mmHg 98%
23:00 -2°C° 0.1 mm 2 mps 734 mmHg 98%

2 February, Tuesday

Time Temperature Precipitation Wind Pressure Humidity
00:00 -2°C° 0.1 mm 2 mps 734 mmHg 97%
01:00 -3°C° 0.1 mm 2 mps 735 mmHg 96%
02:00 -4°C° 0 mm 2 mps 735 mmHg 95%
03:00 -3°C° 0 mm 1 mps 736 mmHg 94%
04:00 -4°C° 0 mm 1 mps 736 mmHg 93%
05:00 -4°C° 0 mm 1 mps 736 mmHg 92%
06:00 -4°C° 0 mm 1 mps 737 mmHg 91%
07:00 -6°C° 0 mm 1 mps 737 mmHg 90%
08:00 -4°C° 0 mm 1 mps 737 mmHg 89%
09:00 -4°C° 0 mm 2 mps 737 mmHg 88%
10:00 -3°C° 0 mm 2 mps 737 mmHg 88%
11:00 -2°C° 0 mm 3 mps 737 mmHg 91%
12:00 -1°C° 0 mm 3 mps 736 mmHg 95%
13:00 -1°C° 0 mm 4 mps 735 mmHg 98%
14:00 -1°C° 0 mm 4 mps 734 mmHg 97%
15:00 -1°C° 0 mm 5 mps 733 mmHg 96%
16:00 -1°C° 0 mm 5 mps 733 mmHg 95%
17:00 -1°C° 1.6 mm 6 mps 732 mmHg 96%
18:00 -1°C° 1.6 mm 7 mps 731 mmHg 96%
19:00 0°C° 1.6 mm 8 mps 731 mmHg 97%
20:00 0°C° 0.2 mm 8 mps 731 mmHg 96%
21:00 0°C° 0.2 mm 8 mps 731 mmHg 95%
22:00 +1°C° 0.2 mm 8 mps 731 mmHg 95%
23:00 +2°C° 0 mm 7 mps 731 mmHg 94%
Show more

We Need Your Consent

Meteoprog and our Service Providers may store and access personal data such as cookies, device identifiers or other similar technologies on your device and process such data to personalise content and ads, as well as provide social media features and to analyse the traffic.

  • Store and/or access information on your device

    Cookies, device identifiers or other information can be stored or accessed on your device for the purposes indicated above.

  • Personalised ads and content, ad and content measurement, audience insights, and products development

    Ads and content can be personalised based on a profile. More data can be added to better personalise ads and content. Ad and content performance can be measured. Insights about the audience who saw the ads and content can be derived. Such data can be used to develop or improve user’s experience, systems and software.

By clicking ‘I Agree’ you will allow the use of indicated cookies, device identifiers, web beacons or other similar technologies. Your settings can be changed in the browser on your device.

For certain purposes, legitimate interests may be relied on, rather than consent. You can read more about this in our Privacy and Cookie Policy.